Flag for U.S.A. Weather past 2 weeks in Flagstaff, Arizona, U.S.A.

Now
69 °F

Sunny.


Feels Like: 69 °F
Forecast: 50 / 69 °F
Wind: 14 mph from South

Location: Flagstaff Pulliam Airport

Current Time: Sep 4, 2015 at 12:45:59 PM

Latest Report: Sep 4, 2015 at 11:57 AM


Visibility: 10 mi

Pressure: 29.90 "Hg (23.41 "Hg at 2103m altitude)

Humidity: 45%

Dew point: 47 °F

Location of FlagstaffLocation

Historic Weather in Flagstaff — Graph

°F

Flagstaff temperature yesterday

Maximum temperature yesterday: 73 °F (at 1:57 PM)
Minimum temperature yesterday: 45 °F (at 2:57 AM)
Average temperature yesterday: 61 °F

Past Weeks' High & Low Weather Summary

 TemperatureHumidityPressure
High84 °F (Aug 24, 1:57 PM)100% (Aug 25, 11:57 PM)30.37 "Hg (Aug 25, 11:57 PM)
Low45 °F (Sep 3, 2:57 AM)20% (Aug 24, 12:57 PM)29.87 "Hg (Sep 4, 2:57 AM)
Average63 °F66%30.03 "Hg
* Reported Aug 20 11:57 AM — Sep 4 11:57 AM, Flagstaff, Weather by CustomWeather, © 2015

Note: Actual official high and low records may vary slightly from our data, if they occured in-between our weather recording intervals... More about our weather records

Advertising

Flagstaff weather history for previous 24 hours

 ConditionsComfort  
Time TempWeatherWind HumidityBarometerVisibility
11:57 AM
Fri, Sep 4
69 °FSunny.14 mph45%29.90 "Hg10 mi
10:57 AM67 °FPassing clouds.10 mph49%29.92 "Hg10 mi
9:57 AM64 °FOvercast.5 mph65%29.93 "Hg10 mi
8:57 AM58 °FScattered clouds.7 mph84%29.93 "Hg10 mi
7:57 AM55 °FSunny.No wind90%29.94 "Hg10 mi
6:57 AM51 °FOvercast.No wind92%29.93 "Hg10 mi
5:57 AM50 °FClear.No wind96%29.90 "Hg10 mi
4:57 AM51 °FClear.No wind96%29.88 "Hg10 mi
3:57 AM53 °FPassing clouds.8 mph93%29.88 "Hg10 mi
2:57 AM56 °FOvercast.5 mph90%29.87 "Hg10 mi
1:57 AM56 °FOvercast.No wind90%29.88 "Hg10 mi
12:57 AM56 °FOvercast.6 mph93%29.90 "Hg10 mi
11:57 PM
Thu, Sep 3
57 °FMostly cloudy.12 mph90%29.90 "Hg10 mi
10:57 PM57 °FPassing clouds.12 mph93%29.90 "Hg10 mi
9:57 PM58 °FPartly cloudy.14 mph87%29.92 "Hg10 mi
8:57 PM63 °FOvercast.8 mph48%29.89 "Hg10 mi
7:57 PM65 °FPassing clouds.8 mph40%29.89 "Hg10 mi
6:57 PM66 °FClear.13 mph37%29.91 "Hg10 mi
5:57 PM70 °FSunny.16 mph37%29.90 "Hg10 mi
4:57 PM72 °FSunny.21 mph37%29.89 "Hg10 mi
3:57 PM73 °FSunny.14 mph37%29.89 "Hg10 mi
2:57 PM73 °FPassing clouds.18 mph37%29.93 "Hg10 mi
1:57 PM73 °FPassing clouds.17 mph36%29.93 "Hg10 mi
12:57 PM71 °FPassing clouds.16 mph38%29.96 "Hg10 mi
Weather by CustomWeather, © 2015

See weather overviewHow to use our weather pages